Regional Weather Roundup
Issued by NWS

Home | Current Version | Previous Version | Graphics & Text | Print | Product List | Glossary On
Versions: 1 2 3 4 5 6 7 8 9 10 11 12 13 14 15 16 17 18 19 20 21 22 23 24 25 26 27 28 29 30 31 32 33 34 35 36 37 38 39 40 41 42 43 44 45 46 47 48 49 50
881
ASUS43 KMPX 280110
RWRMN
WEATHER ROUNDUP FOR MINNESOTA
NATIONAL WEATHER SERVICE TWIN CITIES/CHANHASSEN MN
800 PM CDT TUE JUN 27 2017


NOTE: "FAIR" INDICATES FEW OR NO CLOUDS BELOW 12,000 FEET WITH NO
SIGNIFICANT WEATHER AND/OR OBSTRUCTIONS TO VISIBILITY. N/A MEANS
CURRENT SKY AND/OR WEATHER CONDITIONS ARE NOT AVAILABLE.

MNZ060>063-068>070-280200-
   Twin Cities Metro

CITY           SKY/WX    TMP DP  RH WIND       PRES   REMARKS
TWIN CITIES    MOCLDY    74  43  32 S10       29.86S
ST PAUL        PTCLDY    70  46  42 S7        29.86R
CRYSTAL        PTCLDY    73  42  32 S9        29.84R
BLAINE         PTCLDY    73  45  35 S12       29.84S
LAKEVILLE      PTCLDY    70  45  40 S7        29.87R
EDEN PRAIRIE   CLOUDY    73  44  35 S9        29.85R
SOUTH ST PAUL  PTCLDY    72  43  34 S5        29.86S
LAKE ELMO      FAIR      72  45  37 S10       29.88R
$$
MNZ001>005-007-008-013>017-022>024-027-028-280200-
   Northwest Minnesota

CITY           SKY/WX    TMP DP  RH WIND       PRES   REMARKS
BEMIDJI        SUNNY     71  44  38 S10G18    29.76F
HALLOCK        PTSUNNY   73  46  38 S16G23    29.65F
ROSEAU         SUNNY     72  52  49 S10       29.71S
WARROAD        MOSUNNY   73  52  46 S7        29.72S
THIEF RVR FALL CLOUDY    73  45  36 S15       29.72S
CROOKSTON      CLOUDY    75  46  35 S14G22    29.70S
FOSSTON        MOSUNNY   70  45  40 S12       29.73S
DETROIT LAKES  CLOUDY    64  50  59 S13       29.74F
MOORHEAD       CLOUDY    72  46  40 SE10G20   29.69S
PARK RAPIDS    SUNNY     73  42  32 SE14      29.77F
$$
MNZ006-009>011-018-025>026-280200-
   North Central Minnesota

CITY           SKY/WX    TMP DP  RH WIND       PRES   REMARKS
BAUDETTE       MOSUNNY   70  47  43 S10       29.74F
FLAG ISLAND    PTSUNNY   68  55  64 S13       29.71S
INTL FALLS     MOSUNNY   70  45  40 SW6       29.77S
WASKISH        MOSUNNY   72  48  43 S6        29.76F
BIG FORK       SUNNY     70  48  46 S3        29.80S
LONGVILLE      SUNNY     70  45  40 S8        29.80F
GRAND RAPIDS   SUNNY     69  45  41 S7        29.84R
CRANE LAKE     CLOUDY    64  55  72 CALM      29.81S
ORR            PTCLDY    70  43  37 S6        29.78S
COOK           CLOUDY    70  45  40 SW7       29.82S
$$
MNZ012-019>021-037-280200-
   Northeast Minnesota

CITY           SKY/WX    TMP DP  RH WIND       PRES   REMARKS
DULUTH         CLEAR     69  46  43 SW9       29.85R
ELY            CLOUDY    68  45  42 S5        29.83S
HIBBING        CLEAR     68  42  38 SW6       29.82S
EVELETH        CLEAR     70  35  27 S9        29.85R
DULUTH HARBOR  CLEAR     73  50  43 SW8       29.83S
TWO HARBORS    PTCLDY    73  52  46 SW8       29.82S
SILVER BAY     MOCLDY    70  48  46 S5        29.82F
GRAND MARAIS     N/A     53  44  71 CALM      29.84S
G MARAIS ARPRT PTCLDY    63  41  45 S7        29.86F
$$
MNZ029>031-032-039>041-046>048-054>057-064-280200-
   West Central Minnesota

CITY           SKY/WX    TMP DP  RH WIND       PRES   REMARKS
FERGUS FALLS   PTSUNNY   68  52  56 SE14      29.68F THUNDER
WHEATON        CLOUDY    75  43  31 SE18G24   29.68S
MORRIS         PTSUNNY   73  46  38 S21       29.69S THUNDER
ALEXANDRIA     CLOUDY    65  53  65 SE7       29.76F
ELBOW LAKE     FAIR      69  50  50 SE15G21   29.71F
WADENA         CLOUDY    68  45  42 SE8       29.77F THUNDER
GLENWOOD       CLOUDY    66  52  59 S14       29.75F THUNDER
APPLETON       PTSUNNY   75  43  31 SE14G21   29.70S
BENSON         PTSUNNY   73  46  38 S16       29.75R
ORTONVILLE     CLOUDY    77  45  31 S12G25    29.68F
MADISON        CLOUDY    79  43  27 SE20G28   29.69F
WILLMAR        FAIR      73  46  38 SE13G22   29.78F
$$
MNZ033>034-036-042>043-049>051-058-059-280200-
   Central Minnesota

CITY           SKY/WX    TMP DP  RH WIND       PRES   REMARKS
ST CLOUD       PTCLDY    70  46  42 SE13      29.79F
SAUK CENTRE    TSTM      64  52  65 S14G20    29.75S
PAYNESVILLE    CLOUDY    64  51  63 S13G23    29.76F
AITKIN         CLEAR     68  46  45 SE8       29.80F
PINE RIVER     SUNNY     72  48  43 S6        29.83S
BRAINERD       SUNNY     70  44  39 S9        29.80F
STAPLES        MOSUNNY   70  43  37 S7        29.79R THUNDER
LONG PRAIRIE   FAIR      68  45  42 SE8       29.79R THUNDER
LITTLE FALLS   SUNNY     70  41  35 SE10G18   29.78F THUNDER
LITCHFIELD     LGT RAIN  68  52  56 S13G22    29.74F
BUFFALO        CLOUDY    70  44  39 SE3       29.84S
MAPLE LAKE     CLOUDY    71  48  43 SE5       29.82F
HUTCHINSON     MOCLDY    72  47  42 SE9       29.84S
$$
MNZ037-044-045-052-053-280200-
   East Central Minnesota

CITY           SKY/WX    TMP DP  RH WIND       PRES   REMARKS
PRINCETON      CLEAR     73  45  35 S8        29.84R
MORA           CLEAR     70  41  35 S10G16    29.85S
CAMBRIDGE      CLEAR     75  52  43 S9        29.81F
RUSH CITY      CLEAR     72  43  35 S10       29.85S
MOOSE LAKE     CLEAR     70  41  35 S6        29.83S
HINCKLEY       FAIR      72  45  37 S8        29.84F
CLOQUET        CLEAR     70  41  35 S7        29.85R
MCGREGOR       CLEAR     70  43  37 S7        29.84S
$$
MNZ071>073-080-081-089-090-097-098-280200-
   Southwest Minnesota

CITY           SKY/WX    TMP DP  RH WIND       PRES   REMARKS
MONTEVIDEO     CLOUDY    75  46  35 S12G17    29.73F THUNDER
GRANITE FALLS  CLOUDY    79  47  32 SE17G23   29.76F
CANBY          MOSUNNY   76  48  37 E10G21    29.72F
MARSHALL       CLOUDY    75  50  41 SE17      29.74S
REDWOOD FALLS  CLOUDY    76  43  30 SE12      29.78F
OLIVIA         CLOUDY    73  48  40 SE16      29.76F
PIPESTONE      MOSUNNY   75  55  50 S16G26    29.74S
WINDOM         PTCLDY    73  46  38 SE15G21   29.78F
WORTHINGTON    PTCLDY    75  55  49 S20G26    29.77F
JACKSON        CLEAR     73  50  43 SE14G21   29.81F
TRACY          CLOUDY    74  54  49 SE9       29.77R
SLAYTON        CLOUDY    76  51  41 SE20      29.78R
$$
MNZ065>067-074>077-082>085-091>093-280200-
   South Central Minnesota

CITY           SKY/WX    TMP DP  RH WIND       PRES   REMARKS
MANKATO        CLOUDY    72  46  39 S8        29.87R
NEW ULM        CLOUDY    73  43  33 S14       29.82F
ST JAMES       CLEAR     73  46  38 SE13      29.84R
FAIRMONT       CLEAR     72  49  44 S12       29.83S
GLENCOE        CLOUDY    73  48  42 S3        29.85R
FARIBAULT      CLOUDY    72  45  37 SE8       29.87R
OWATONNA       MOCLDY    72  46  40 S10G16    29.87S
WASECA         PTCLDY    72  43  35 S15       29.87S
ALBERT LEA     MOCLDY    72  41  33 S10       29.87S
$$
MNZ078>079-086>088-094>096-280200-
   Southeast Minnesota

CITY           SKY/WX    TMP DP  RH WIND       PRES   REMARKS
ROCHESTER      CLOUDY    69  43  38 S13       29.89F
RED WING       PTCLDY    72  41  33 S5        29.87R
STANTON        PTCLDY    72  44  35 S7        29.86R
DODGE CENTER   PTCLDY    70  41  35 S15       29.88F
WINONA         CLEAR     70  46  43 CALM      29.91S
AUSTIN         MOCLDY    70  43  37 S10       29.88F
PRESTON        PTCLDY    67  44  43 S12G17    29.92S
$$
ABBREVIATIONS USED IN REMARKS
   TC - TEMPERATURES IN CELSIUS
  WCI - WIND CHILL INDEX
   HX - HEAT INDEX
  VSB - VISIBILITY
$$




USA.gov is the U.S. government's official web portal to all federal, state and local government web resources and services.